FW2068 Weather Reports


Display with metric or nautical units.
time (UTC)temp
F
wind
direction
speed
MPH
gust
MPH
rain 1hr
in
rain 24hr
in
rain mn
in
humidity
%
barometer
mb
20260906202925 97 149 3.0 7.0 0.00 0.00 0.00 46 1011.9
20260906202425 99 106 5.0 6.0 0.00 0.00 0.00 43 1011.8
20260906201920 98 152 8.0 16.0 0.00 0.00 0.00 46 1011.9
20260906201414 99 120 2.0 5.0 0.00 0.00 0.00 46 1012.1
20260906200909 97 112 1.0 3.0 0.00 0.00 0.00 46 1012.1
20260906200405 97 108 5.0 5.0 0.00 0.00 0.00 45 1012.2
20260906195900 98 102 3.0 8.0 0.00 0.00 0.00 44 1012.0
20260906195356 98 68 5.0 8.0 0.00 0.00 0.00 45 1012.3
20260906194852 99 134 2.0 5.0 0.00 0.00 0.00 45 1012.3
20260906194348 98 149 3.0 6.0 0.00 0.00 0.00 45 1012.2
20260906193843 98 95 5.0 6.0 0.00 0.00 0.00 45 1012.4
20260906193338 97 101 3.0 12.0 0.00 0.00 0.00 46 1012.4
20260906192833 98 133 6.0 8.0 0.00 0.00 0.00 45 1012.6
20260906192333 98 106 2.0 6.0 0.00 0.00 0.00 46 1012.3
20260906191832 98 187 4.0 11.0 0.00 0.00 0.00 48 1012.4
20260906191327 99 0 2.0 7.0 0.00 0.00 0.00 46 1012.5
20260906190821 98 74 2.0 6.0 0.00 0.00 0.00 45 1012.5
20260906190320 98 134 7.0 8.0 0.00 0.00 0.00 46 1012.5
20260906185815 98 126 5.0 6.0 0.00 0.00 0.00 45 1012.7
20260906185314 96 149 9.0 13.0 0.00 0.00 0.00 49 1012.8
20260906184809 96 108 3.0 6.0 0.00 0.00 0.00 49 1012.7
20260906184304 96 110 2.0 6.0 0.00 0.00 0.00 47 1012.8
20260906183800 94 137 2.0 8.0 0.00 0.00 0.00 51 1013.0
20260906183256 95 139 7.0 12.0 0.00 0.00 0.00 50 1013.0
20260906182755 97 143 8.0 11.0 0.00 0.00 0.00 47 1012.9
20260906182251 96 176 3.0 6.0 0.00 0.00 0.00 48 1013.1
20260906181746 97 140 10.0 14.0 0.00 0.00 0.00 48 1013.2
20260906181243 96 159 2.0 6.0 0.00 0.00 0.00 51 1013.3
20260906180742 97 120 6.0 7.0 0.00 0.00 0.00 48 1013.5
20260906180238 96 142 7.0 13.0 0.00 0.00 0.00 48 1013.5
20260906175735 96 148 9.0 14.0 0.00 0.00 0.00 50 1013.4
20260906175232 94 157 6.0 8.0 0.00 0.00 0.00 52 1013.5
20260906174730 95 193 5.0 6.0 0.00 0.00 0.00 51 1013.4
20260906174229 95 171 3.0 11.0 0.00 0.00 0.00 50 1013.6
20260906173725 95 144 4.0 6.0 0.00 0.00 0.00 52 1013.6
20260906173221 95 159 6.0 12.0 0.00 0.00 0.00 52 1013.7
20260906172720 95 102 0.0 2.0 0.00 0.00 0.00 51 1013.7
20260906172215 95 124 6.0 7.0 0.00 0.00 0.00 52 1014.1
20260906171710 94 143 4.0 9.0 0.00 0.00 0.00 53 1014.2
20260906171205 93 91 2.0 7.0 0.00 0.00 0.00 56 1014.2
20260906170701 94 168 4.0 7.0 0.00 0.00 0.00 54 1014.1
20260906170201 94 119 3.0 4.0 0.00 0.00 0.00 54 1014.5
20260906165657 93 168 3.0 9.0 0.00 0.00 0.00 56 1014.4
20260906165157 93 121 6.0 6.0 0.00 0.00 0.00 54 1014.4
20260906164656 93 149 4.0 5.0 0.00 0.00 0.00 56 1014.5
20260906164152 92 141 4.0 7.0 0.00 0.00 0.00 58 1014.7
20260906163648 92 145 2.0 9.0 0.00 0.00 0.00 57 1014.5
20260906163144 93 164 5.0 10.0 0.00 0.00 0.00 57 1014.5
20260906162641 93 175 4.0 5.0 0.00 0.00 0.00 56 1014.5
20260906162140 93 148 2.0 4.0 0.00 0.00 0.00 58 1014.6
20260906161635 92 158 2.0 2.0 0.00 0.00 0.00 58 1014.6
20260906161134 92 158 2.0 4.0 0.00 0.00 0.00 61 1014.6
20260906160633 92 195 4.0 7.0 0.00 0.00 0.00 59 1014.6
20260906160132 94 303 1.0 4.0 0.00 0.00 0.00 58 1014.6
20260906155630 93 335 3.0 3.0 0.00 0.00 0.00 57 1014.7
20260906155126 93 75 2.0 5.0 0.00 0.00 0.00 58 1014.6
20260906154621 91 106 2.0 5.0 0.00 0.00 0.00 60 1014.6
20260906154121 91 139 2.0 6.0 0.00 0.00 0.00 62 1014.5
20260906153620 92 172 2.0 4.0 0.00 0.00 0.00 61 1014.6
20260906153115 91 345 2.0 3.0 0.00 0.00 0.00 62 1014.3
20260906152614 90 110 2.0 5.0 0.00 0.00 0.00 63 1014.5
20260906152109 90 149 4.0 4.0 0.00 0.00 0.00 66 1014.5
20260906151603 89 238 0.0 2.0 0.00 0.00 0.00 68 1014.4
20260906151059 90 306 1.0 1.0 0.00 0.00 0.00 64 1014.4
20260906150554 89 146 2.0 5.0 0.00 0.00 0.00 66 1014.5
20260906150049 90 158 3.0 3.0 0.00 0.00 0.00 68 1014.5
20260906145548 91 101 2.0 2.0 0.00 0.00 0.00 64 1014.3
20260906145044 88 195 0.0 1.0 0.00 0.00 0.00 69 1014.5
20260906144537 88 48 2.0 4.0 0.00 0.00 0.00 68 1014.5
20260906144033 88 113 0.0 3.0 0.00 0.00 0.00 68 1014.4
20260906143528 86 180 2.0 3.0 0.00 0.00 0.00 72 1014.3
20260906143026 86 155 2.0 2.0 0.00 0.00 0.00 72 1014.6
20260906142524 86 164 0.0 4.0 0.00 0.00 0.00 73 1014.4
20260906142020 86 106 3.0 3.0 0.00 0.00 0.00 73 1014.4
20260906141519 85 148 4.0 4.0 0.00 0.00 0.00 76 1014.5
20260906141014 84 168 2.0 2.0 0.00 0.00 0.00 76 1014.6
20260906140508 83 230 0.0 2.0 0.00 0.00 0.00 79 1014.7
20260906140007 82 160 3.0 3.0 0.00 0.00 0.00 80 1014.5
20260906135505 82 165 3.0 4.0 0.00 0.00 0.00 81 1014.3
20260906135000 82 140 2.0 3.0 0.00 0.00 0.00 82 1014.4
20260906134456 82 114 2.0 4.0 0.00 0.00 0.00 82 1014.3
20260906133956 82 139 0.0 2.0 0.00 0.00 0.00 83 1014.4
20260906133452 81 149 2.0 3.0 0.00 0.00 0.00 84 1014.1
20260906132948 81 109 2.0 5.0 0.00 0.00 0.00 84 1014.3
20260906132443 81 117 0.0 2.0 0.00 0.00 0.00 83 1014.2
20260906131938 80 144 2.0 2.0 0.00 0.00 0.00 85 1014.1
20260906131433 80 136 2.0 2.0 0.00 0.00 0.00 86 1014.4
20260906130929 79 151 3.0 3.0 0.00 0.00 0.00 87 1014.1
20260906130428 78 120 3.0 3.0 0.00 0.00 0.00 89 1014.2
20260906125929 78 141 4.0 5.0 0.00 0.00 0.00 90 1014.0
20260906125426 77 116 2.0 3.0 0.00 0.00 0.00 92 1014.1
20260906124925 77 144 2.0 2.0 0.00 0.00 0.00 92 1013.9
20260906124421 76 159 2.0 3.0 0.00 0.00 0.00 92 1013.9
20260906123916 76 136 1.0 4.0 0.00 0.00 0.00 92 1013.6
20260906123415 76 134 2.0 2.0 0.00 0.00 0.00 92 1013.7
20260906122909 76 100 1.0 2.0 0.00 0.00 0.00 93 1013.5
20260906122404 76 157 0.0 2.0 0.00 0.00 0.00 93 1013.7
20260906121901 76 127 0.0 2.0 0.00 0.00 0.00 93 1013.9
20260906121357 76 180 1.0 2.0 0.00 0.00 0.00 93 1013.6
20260906120853 76 115 2.0 2.0 0.00 0.00 0.00 93 1013.5
20260906120348 76 106 0.0 2.0 0.00 0.00 0.00 93 1013.4
20260906115844 76 142 1.0 2.0 0.00 0.00 0.00 93 1013.6
20260906115339 76 92 1.0 2.0 0.00 0.00 0.00 93 1013.3
20260906114839 76 123 1.0 1.0 0.00 0.00 0.00 93 1013.6
20260906114334 76 64 0.0 1.0 0.00 0.00 0.00 93 1013.4
20260906113829 76 48 2.0 2.0 0.00 0.00 0.00 92 1013.2
20260906113328 76 98 2.0 2.0 0.00 0.00 0.00 92 1013.4
20260906112824 76 135 2.0 3.0 0.00 0.00 0.00 92 1013.2
20260906112320 76 141 2.0 3.0 0.00 0.00 0.00 92 1013.2
20260906111820 76 130 0.0 3.0 0.00 0.00 0.00 92 1013.2
20260906111319 76 128 3.0 3.0 0.00 0.00 0.00 92 1013.2
20260906110814 76 105 1.0 4.0 0.00 0.00 0.00 92 1013.2
20260906110311 76 124 2.0 2.0 0.00 0.00 0.00 92 1013.2
20260906105809 76 107 2.0 2.0 0.00 0.00 0.00 92 1013.2
20260906105306 76 129 0.0 3.0 0.00 0.00 0.00 92 1013.0
20260906104801 76 104 1.0 2.0 0.00 0.00 0.00 92 1013.1
20260906104259 76 128 0.0 3.0 0.00 0.00 0.00 92 1013.0
20260906103757 77 75 2.0 3.0 0.00 0.00 0.00 91 1013.0
20260906103251 77 118 2.0 4.0 0.00 0.00 0.00 91 1013.0
20260906102747 77 135 2.0 3.0 0.00 0.00 0.00 91 1012.9
20260906102245 77 116 0.0 2.0 0.00 0.00 0.00 91 1013.0
20260906101741 77 111 2.0 2.0 0.00 0.00 0.00 91 1012.8
20260906101236 77 114 0.0 2.0 0.00 0.00 0.00 91 1013.0
20260906100732 77 128 2.0 3.0 0.00 0.00 0.00 91 1012.9
20260906100231 77 108 1.0 4.0 0.00 0.00 0.00 91 1012.9
20260906095726 77 94 2.0 4.0 0.00 0.00 0.00 91 1013.0
20260906095222 77 122 0.0 4.0 0.00 0.00 0.00 91 1012.7
20260906094720 77 131 2.0 3.0 0.00 0.00 0.00 91 1012.7
20260906094216 77 124 2.0 4.0 0.00 0.00 0.00 91 1012.6
20260906093712 77 102 1.0 3.0 0.00 0.00 0.00 91 1012.5
20260906093202 77 100 1.0 4.0 0.00 0.00 0.00 91 1012.5
20260906092657 77 135 2.0 3.0 0.00 0.00 0.00 91 1012.6
20260906092156 77 166 0.0 1.0 0.00 0.00 0.00 90 1012.4
20260906091652 77 107 2.0 3.0 0.00 0.00 0.00 90 1012.6
20260906091149 77 95 0.0 2.0 0.00 0.00 0.00 90 1012.6
20260906090644 77 129 1.0 3.0 0.00 0.00 0.00 89 1012.5
20260906090144 78 97 2.0 2.0 0.00 0.00 0.00 89 1012.5
20260906085642 78 125 2.0 2.0 0.00 0.00 0.00 89 1012.4
20260906085137 78 102 2.0 2.0 0.00 0.00 0.00 89 1012.3
20260906084632 78 100 0.0 3.0 0.00 0.00 0.00 89 1012.4
20260906084131 78 141 0.0 1.0 0.00 0.00 0.00 89 1012.2
20260906083626 78 117 0.0 2.0 0.00 0.00 0.00 89 1012.4
20260906083121 78 137 2.0 3.0 0.00 0.00 0.00 89 1012.5
20260906082616 78 146 1.0 1.0 0.00 0.00 0.00 89 1012.4
20260906082112 78 185 0.0 0.0 0.00 0.00 0.00 89 1012.5
20260906081607 78 142 0.0 1.0 0.00 0.00 0.00 89 1012.4
20260906081102 78 140 3.0 4.0 0.00 0.00 0.00 88 1012.5
20260906080559 78 136 2.0 4.0 0.00 0.00 0.00 89 1012.5
20260906080055 78 151 3.0 5.0 0.00 0.00 0.00 88 1012.3
20260906075554 78 158 2.0 4.0 0.00 0.00 0.00 88 1012.4
20260906075049 78 142 2.0 4.0 0.00 0.00 0.00 88 1012.5
20260906074544 78 143 2.0 4.0 0.00 0.00 0.00 88 1012.5
20260906074043 78 125 3.0 4.0 0.00 0.00 0.00 88 1012.3
20260906073538 78 153 4.0 4.0 0.00 0.00 0.00 88 1012.8
20260906073034 78 147 3.0 4.0 0.00 0.00 0.00 88 1012.5
20260906072528 78 138 2.0 2.0 0.00 0.00 0.00 88 1012.6
20260906072025 78 157 2.0 3.0 0.00 0.00 0.00 87 1012.7
20260906071521 78 133 3.0 4.0 0.00 0.00 0.00 88 1012.8
20260906071011 79 142 3.0 5.0 0.00 0.00 0.00 87 1012.7
20260906070506 79 161 5.0 5.0 0.00 0.00 0.00 87 1012.7
20260906070001 79 150 4.0 4.0 0.00 0.00 0.00 87 1012.7
20260906065455 79 144 3.0 4.0 0.00 0.00 0.00 87 1012.7
20260906064951 79 151 2.0 3.0 0.00 0.00 0.00 87 1012.8
20260906064447 79 151 2.0 2.0 0.00 0.00 0.00 87 1012.7
20260906063942 79 146 4.0 5.0 0.00 0.00 0.00 86 1012.7
20260906063437 79 150 3.0 3.0 0.00 0.00 0.00 86 1012.6
20260906062938 80 140 2.0 3.0 0.00 0.00 0.00 86 1012.3
20260906062433 80 162 3.0 4.0 0.00 0.00 0.00 86 1012.3
20260906061927 79 157 2.0 3.0 0.00 0.00 0.00 86 1012.6
20260906061423 79 163 2.0 5.0 0.00 0.00 0.00 86 1012.6
20260906060917 80 158 3.0 5.0 0.00 0.00 0.00 86 1012.8
20260906060415 80 169 4.0 4.0 0.00 0.00 0.00 85 1012.8
20260906055911 80 166 2.0 4.0 0.00 0.00 0.00 85 1012.9
20260906055407 80 146 2.0 4.0 0.00 0.00 0.00 85 1013.0
20260906054902 80 133 3.0 5.0 0.00 0.00 0.00 85 1013.2
20260906054356 80 149 2.0 4.0 0.00 0.00 0.00 85 1012.9
20260906053853 80 157 3.0 4.0 0.00 0.00 0.00 85 1012.9
20260906053348 80 141 3.0 4.0 0.00 0.00 0.00 84 1012.7
20260906052843 80 152 2.0 2.0 0.00 0.00 0.00 84 1012.8
20260906052340 80 135 3.0 5.0 0.00 0.00 0.00 84 1012.8
20260906051837 80 156 4.0 5.0 0.00 0.00 0.00 84 1012.8
20260906051336 80 142 3.0 5.0 0.00 0.00 0.00 84 1012.8
20260906050832 80 155 4.0 6.0 0.00 0.00 0.00 84 1012.8
20260906050327 80 144 4.0 4.0 0.00 0.00 0.00 84 1012.9
20260906045825 80 151 3.0 5.0 0.00 0.00 0.00 84 1012.7
20260906045320 80 152 4.0 5.0 0.00 0.00 0.00 84 1012.7
20260906044817 81 151 4.0 5.0 0.00 0.00 0.00 83 1012.7
20260906044311 81 151 4.0 6.0 0.00 0.00 0.00 83 1012.7
20260906043807 81 147 4.0 7.0 0.00 0.00 0.00 83 1012.6
20260906043303 81 132 5.0 7.0 0.00 0.00 0.00 82 1012.7
20260906042802 81 156 3.0 5.0 0.00 0.00 0.00 83 1012.6
20260906042301 81 148 4.0 4.0 0.00 0.00 0.00 82 1012.7
20260906041757 82 184 3.0 4.0 0.00 0.00 0.00 81 1012.6
20260906041252 82 196 2.0 4.0 0.00 0.00 0.00 81 1012.5
20260906040748 82 198 2.0 3.0 0.00 0.00 0.00 81 1012.5
20260906040242 82 167 2.0 3.0 0.00 0.00 0.00 81 1012.6
20260906035738 82 173 0.0 2.0 0.00 0.00 0.00 81 1012.7
20260906035234 82 159 2.0 5.0 0.00 0.00 0.00 80 1012.9
20260906034733 82 149 3.0 6.0 0.00 0.00 0.00 80 1013.0
20260906034223 82 148 5.0 6.0 0.00 0.00 0.00 80 1012.8
20260906033718 82 151 5.0 9.0 0.00 0.00 0.00 79 1012.7
20260906033212 82 137 2.0 5.0 0.00 0.00 0.00 79 1012.8
20260906032710 82 146 2.0 4.0 0.00 0.00 0.00 79 1012.8
20260906032210 83 142 4.0 4.0 0.00 0.00 0.00 78 1012.8
20260906031705 83 147 2.0 4.0 0.00 0.00 0.00 78 1012.7
20260906031200 83 147 4.0 6.0 0.00 0.00 0.00 78 1012.6
20260906030700 83 144 5.0 6.0 0.00 0.00 0.00 78 1012.6
20260906030154 83 127 3.0 5.0 0.00 0.00 0.00 77 1012.7
20260906025653 83 163 5.0 6.0 0.00 0.00 0.00 77 1012.5
20260906025148 83 155 3.0 5.0 0.00 0.00 0.00 77 1012.5
20260906024642 83 171 4.0 6.0 0.00 0.00 0.00 76 1012.5
20260906024137 84 154 4.0 7.0 0.00 0.00 0.00 76 1012.3
20260906023633 84 155 4.0 6.0 0.00 0.00 0.00 76 1012.2
20260906023132 84 148 6.0 7.0 0.00 0.00 0.00 75 1012.3
20260906022627 84 139 8.0 10.0 0.00 0.00 0.00 75 1012.3
20260906022124 84 148 8.0 11.0 0.00 0.00 0.00 75 1012.2
20260906021619 84 147 6.0 9.0 0.00 0.00 0.00 74 1012.3
20260906021118 84 152 7.0 9.0 0.00 0.00 0.00 73 1012.2
20260906020617 85 150 6.0 8.0 0.00 0.00 0.00 73 1012.1
20260906020112 85 155 6.0 11.0 0.00 0.00 0.00 72 1012.0
20260906015612 85 122 5.0 12.0 0.00 0.00 0.00 72 1012.1
20260906015111 85 151 6.0 9.0 0.00 0.00 0.00 71 1011.9
20260906014605 85 154 8.0 9.0 0.00 0.00 0.00 71 1011.7
20260906014101 85 140 8.0 11.0 0.00 0.00 0.00 70 1011.8
20260906013557 85 149 4.0 9.0 0.00 0.00 0.00 70 1011.6
20260906013053 86 131 6.0 11.0 0.00 0.00 0.00 70 1011.6
20260906012547 86 138 7.0 11.0 0.00 0.00 0.00 69 1011.5
20260906012046 86 108 6.0 12.0 0.00 0.00 0.00 69 1011.5
20260906011543 86 123 6.0 10.0 0.00 0.00 0.00 68 1011.3
20260906011042 86 113 3.0 8.0 0.00 0.00 0.00 68 1011.3
20260906010538 86 143 8.0 11.0 0.00 0.00 0.00 67 1011.3
20260906010034 86 156 7.0 11.0 0.00 0.00 0.00 67 1011.1
20260906005533 86 112 5.0 13.0 0.00 0.00 0.00 67 1011.4
20260906005032 87 137 7.0 15.0 0.00 0.00 0.00 67 1011.3
20260906004532 87 151 8.0 13.0 0.00 0.00 0.00 66 1011.3
20260906004027 87 147 13.0 14.0 0.00 0.00 0.00 65 1011.5
20260906003522 87 149 10.0 14.0 0.00 0.00 0.00 65 1011.3
20260906003018 88 158 14.0 19.0 0.00 0.00 0.00 64 1011.5
20260906002513 88 147 10.0 19.0 0.00 0.00 0.00 63 1011.5
20260906002008 88 150 16.0 16.0 0.00 0.00 0.00 62 1011.5
20260906001503 88 133 13.0 19.0 0.00 0.00 0.00 61 1011.4
20260906000952 89 130 5.0 17.0 0.00 0.00 0.00 60 1011.3
20260906000448 89 143 14.0 22.0 0.00 0.00 0.00 59 1011.2
20260905235948 90 154 10.0 18.0 0.00 0.00 0.00 58 1011.3
20260905235442 92 148 11.0 17.0 0.00 0.00 0.00 55 1011.2
20260905234937 93 139 12.0 17.0 0.00 0.00 0.00 52 1011.1
20260905234433 94 123 4.0 11.0 0.00 0.00 0.00 51 1011.0
20260905233932 95 137 10.0 11.0 0.00 0.00 0.00 50 1011.0
20260905233427 95 127 6.0 12.0 0.00 0.00 0.00 50 1010.9
20260905232926 95 139 4.0 11.0 0.00 0.00 0.00 50 1010.9
20260905232423 96 99 4.0 14.0 0.00 0.00 0.00 49 1010.7
20260905231918 95 126 4.0 11.0 0.00 0.00 0.00 49 1010.8
20260905231414 97 139 9.0 10.0 0.00 0.00 0.00 49 1010.8
20260905230905 96 137 4.0 15.0 0.00 0.00 0.00 49 1010.7
20260905230402 97 148 9.0 13.0 0.00 0.00 0.00 48 1010.6
20260905225855 97 130 9.0 13.0 0.00 0.00 0.00 48 1010.8
20260905225351 98 152 6.0 12.0 0.00 0.00 0.00 49 1010.5
20260905224845 99 154 6.0 8.0 0.00 0.00 0.00 43 1010.6
20260905224341 99 132 3.0 5.0 0.00 0.00 0.00 43 1010.4
20260905223836 99 132 6.0 10.0 0.00 0.00 0.00 42 1010.3
20260905223334 99 123 2.0 8.0 0.00 0.00 0.00 43 1010.4
20260905222834 99 166 3.0 5.0 0.00 0.00 0.00 43 1010.6
20260905222332 98 169 2.0 4.0 0.00 0.00 0.00 45 1010.5
20260905221829 98 158 7.0 8.0 0.00 0.00 0.00 44 1010.3
20260905221325 100 264 2.0 4.0 0.00 0.00 0.00 42 1010.4
20260905220821 101 257 0.0 2.0 0.00 0.00 0.00 41 1010.3
20260905220317 101 286 3.0 4.0 0.00 0.00 0.00 42 1010.5
20260905215816 100 231 1.0 4.0 0.00 0.00 0.00 42 1010.7
20260905215312 100 188 2.0 4.0 0.00 0.00 0.00 42 1010.5
20260905214808 97 184 2.0 4.0 0.00 0.00 0.00 45 1010.6
20260905214303 97 178 0.0 3.0 0.00 0.00 0.00 46 1010.8
20260905213758 98 197 2.0 4.0 0.00 0.00 0.00 44 1011.0
20260905213255 98 167 2.0 5.0 0.00 0.00 0.00 46 1010.7
20260905212749 98 196 1.0 8.0 0.00 0.00 0.00 45 1010.7
20260905212244 97 155 2.0 3.0 0.00 0.00 0.00 46 1010.7
20260905211743 98 279 2.0 3.0 0.00 0.00 0.00 45 1010.9
20260905211239 99 133 2.0 2.0 0.00 0.00 0.00 44 1011.0
20260905210735 98 9 0.0 2.0 0.00 0.00 0.00 44 1011.4
20260905210234 98 168 2.0 2.0 0.00 0.00 0.00 45 1011.2
20260905205733 97 297 2.0 4.0 0.00 0.00 0.00 45 1011.2
20260905205228 96 222 0.0 4.0 0.00 0.00 0.00 46 1011.0
20260905204728 97 290 3.0 6.0 0.00 0.00 0.00 46 1011.4
20260905204223 99 339 0.0 2.0 0.00 0.00 0.00 44 1011.2
20260905203723 98 233 2.0 5.0 0.00 0.00 0.00 45 1011.3